Location: *
(50.6089°N, 2.2719°E)
Time: 14:41:56
(UTC+00:00)

STARLINK-53 - Pass Details

Date: 18 October 2019
Orbit: 550 x 552 km, 53.0° (Epoch: 16 November)

Event Time Altitude Azimuth Distance (km) Brightness Sun altitude
Rises 17:33:02 0° 248° (WSW) 2,716 9.0 -7.0°
Reaches altitude 10° 17:35:16 10° 248° (WSW) 1,824 7.8 -7.4°
Maximum altitude 17:39:25 88° 166° (SSE) 557 3.6 -8.0°
Enters shadow 17:43:29 11° 71° (ENE) 1,789 5.6 -8.6°
